Location: Demmingen
(48.6757°N, 10.4375°E)
Time: 22:04:39
(UTC+00:00)

SL-16 R/B - Pass Details

Date: 11 August 2024
Orbit: 842 x 845 km, 71.0° (Epoch: 10 September)

Event Time Altitude Azimuth Distance (km) Brightness Sun altitude
Exits shadow 22:46:23 45° 98° (E) 1,138 2.7 -25.9°
Drops below altitude 10° 22:51:25 10° 38° (NE) 2,474 5.1 -26.0°
Sets 22:53:57 0° 33° (NNE) 3,414 6.1 -26.1°
